sat.trackr.live / text

‹ back to catalog

STARLINK-5869

NORAD 57061 · 2023-088P

PAYLOAD ACTIVE UNKNOWN

§ Identity

Operator
Country
US
Launch date
2023-06-22
Launch site
AFWTR
Launch vehicle
Mass (kg)
RCS (m²)

Purposes: comms

External: N2YO · Heavens-Above · Gunter

§ Orbital elements

Epoch: 2026-05-25T01:23:01.517280Z

Period
94.27 min
Inclination
43.0046°
Eccentricity
0.0000882
Mean motion
15.27582441 rev/d
Perigee alt
482.4 km
Apogee alt
483.6 km
Semi-major
6,861.2 km
B*
4.0837e-5
RAAN
42.6243°
Arg perigee
247.6286°
Mean anomaly
112.4473°
Rev number
16,099

§ Raw data

STARLINK-58691 57061U 23088P   26145.05765645  .00000862  00000+0  40837-4 0  99972 57061  43.0046  42.6243 0000882 247.6286 112.4473 15.27582441160998

JSON: /api/v1/satellites/57061 · /tle

For live sub-satellite position, see the globe view (requires WebGL).

§ Visibility from observer

Set your observer location to see the next 7 days of passes ≥ 10°. The values pass through the URL so the page stays shareable.

No JS? Fill the form by hand. The geolocation button needs JavaScript.